Weather History for Montreal Mirabel, QC

Change the Weather History Date:

Thursday, April 10, 2014

  Actual Average Record
Temperature  
Mean Temperature 42 °F -  
Max Temperature 57 °F 46 °F 60 °F (2011)
Min Temperature 26 °F 28 °F 15 °F (1997)
Degree Days  
Heating Degree Days 24    
Moisture  
Dew Point 27 °F    
Average Humidity 57    
Maximum Humidity 93    
Minimum Humidity 36    
Precipitation  
Precipitation 0.00 in - - ()
Sea Level Pressure  
Sea Level Pressure 29.81 in    
Wind  
Wind Speed 6 mph ()    
Max Wind Speed 16 mph    
Max Gust Speed 24 mph    
Visibility 15.0 miles    
Events Rain    
Averages and records for this station are not official NWS values.
T = Trace of Precipitation, MM = Missing Value Source: Averaged Metar Reports

Daily Weather History Graph

Daily Weather History Graph

Search for Another Location

Airport:

Trip Planner

Search our weather history database for the weather conditions in past years. The results will help you decide how hot, cold, wet, or windy it might be!

Date:

Astronomy

Apr. 10, 2014 Rise Set
Actual Time 6:19 AM EDT 7:36 PM EDT
Civil Twilight 5:48 AM EDT 8:06 PM EDT
Nautical Twilight 5:12 AM EDT 8:43 PM EDT
Astronomical Twilight 4:32 AM EDT 9:23 PM EDT
Moon 3:05 PM EDT (4/10) 3:54 AM EDT (4/10)
Length of Visible Light 14h 17m
Length of Day
13h 16m
Waxing Gibbous, 79% of the Moon is Illuminated
Apr 10
Waxing Gibbous
Apr 15
Full
Apr 22
Last Quarter
Apr 29
New
May 6
First Quarter

Hourly Weather History & Observations

Time (EDT) Temp. Windchill Dew Point Humidity Pressure Visibility Wind Dir Wind Speed Gust Speed Precip Events Conditions
12:00 AM 26.6 °F - 14.0 °F 59% 29.92 in 25.0 mi West 2.3 mph - N/A   Clear
1:00 AM 26.6 °F - 14.0 °F 59% 29.92 in 25.0 mi WSW 2.3 mph - N/A   Clear
2:00 AM 28.4 °F 23.3 °F 15.8 °F 59% 29.92 in 25.0 mi SW 4.6 mph - N/A   Clear
3:00 AM 30.2 °F 24.3 °F 17.6 °F 60% 29.92 in 25.0 mi SW 5.8 mph - N/A   Partly Cloudy
4:00 AM 30.2 °F 24.3 °F 19.4 °F 64% 29.92 in 25.0 mi SW 5.8 mph - N/A   Scattered Clouds
5:00 AM 28.4 °F 22.2 °F 19.4 °F 69% 29.93 in 25.0 mi SW 5.8 mph - N/A   Scattered Clouds
6:00 AM 28.4 °F 22.2 °F 21.2 °F 74% 29.94 in 45.0 mi SW 5.8 mph - N/A   Partly Cloudy
7:00 AM 28.4 °F 23.3 °F 21.2 °F 74% 29.94 in 45.0 mi SSW 4.6 mph - N/A   Mostly Cloudy
8:00 AM 30.2 °F 26.7 °F 23.0 °F 75% 29.94 in 35.0 mi SW 3.5 mph - N/A   Mostly Cloudy
9:00 AM 35.6 °F 32.8 °F 24.8 °F 65% 29.92 in 25.0 mi WSW 3.5 mph - N/A   Mostly Cloudy
10:00 AM 37.4 °F 32.1 °F 26.6 °F 65% 29.90 in 45.0 mi SW 6.9 mph - N/A   Mostly Cloudy
11:00 AM 42.8 °F 40.1 °F 26.6 °F 53% 29.88 in 35.0 mi SW 4.6 mph - N/A   Mostly Cloudy
12:00 PM 44.6 °F 39.7 °F 26.6 °F 49% 29.84 in 25.0 mi South 9.2 mph - N/A   Mostly Cloudy
1:00 PM 48.2 °F - 28.4 °F 46% 29.80 in 25.0 mi South 6.9 mph - N/A   Mostly Cloudy
2:00 PM 53.6 °F - 32.0 °F 44% 29.76 in 25.0 mi SSW 15.0 mph - N/A   Mostly Cloudy
3:00 PM 55.4 °F - 33.8 °F 44% 29.73 in 25.0 mi SSW 16.1 mph - N/A   Mostly Cloudy
4:00 PM 55.4 °F - 32.0 °F 41% 29.68 in 25.0 mi SSW 16.1 mph - N/A   Mostly Cloudy
5:00 PM 57.2 °F - 30.2 °F 36% 29.65 in 25.0 mi SW 15.0 mph 24.2 mph N/A   Mostly Cloudy
6:00 PM 55.4 °F - 30.2 °F 38% 29.64 in 45.0 mi SSW 11.5 mph 18.4 mph N/A   Mostly Cloudy
7:00 PM 55.4 °F - 32.0 °F 41% 29.63 in 45.0 mi SW 9.2 mph - N/A   Mostly Cloudy
8:00 PM 55.4 °F - 30.2 °F 38% 29.62 in 25.0 mi SW 6.9 mph - N/A   Mostly Cloudy
9:00 PM 55.4 °F - 32.0 °F 41% 29.67 in 25.0 mi WSW 10.4 mph 19.6 mph N/A   Mostly Cloudy
9:06 PM 53.6 °F - 32.0 °F 44% 29.68 in 25.0 mi West 9.2 mph 19.6 mph N/A Rain Light Rain
10:00 PM 48.2 °F - 42.8 °F 82% 29.70 in 15.0 mi SW 9.2 mph - N/A Rain Light Rain
11:00 PM 46.4 °F 41.5 °F 44.6 °F 93% 29.70 in 15.0 mi SW 10.4 mph 19.6 mph N/A Rain Light Rain